Regional Weather Roundup
Issued by NWS

Home | Current Version | Previous Version | Graphics & Text | Print | Product List | Glossary On
Versions: 1 2 3 4 5 6 7 8 9 10 11 12 13 14 15 16 17 18 19 20 21 22 23 24 25 26 27 28 29 30 31 32 33 34 35 36 37 38 39 40 41 42 43 44 45 46 47 48 49 50
000
ASUS43 KBIS 200402
RWRND

NORTH DAKOTA REGIONAL WEATHER ROUNDUP
NATIONAL WEATHER SERVICE BISMARCK ND
1100 PM CDT SAT AUG 19 2017

NOTE: "FAIR" INDICATES FEW OR NO CLOUDS BELOW 12,000 FEET WITH NO
SIGNIFICANT WEATHER AND/OR OBSTRUCTIONS TO VISIBILITY.


NDZ001>003-009>011-017-200500-
NORTHWEST NORTH DAKOTA

CITY           SKY/WX    TMP DP  RH WIND       PRES   REMARKS
WILLISTON      PTCLDY    66  39  37 NW9       29.94R
MINOT          PTCLDY    67  45  45 W12       29.86R
MINOT AFB      PTCLDY    64  46  51 NW10      29.84R
$$

NDZ018>021-031>035-040>046-200500-
SOUTHWEST NORTH DAKOTA

CITY           SKY/WX    TMP DP  RH WIND       PRES   REMARKS
BISMARCK       PTCLDY    73  56  54 NW13      29.86R
DICKINSON      CLEAR     66  45  46 N12       29.93R
GARRISON         N/A     62  49  62 NW12      29.88R
HETTINGER ARPT CLOUDY    67  48  50 N10       29.94R
$$

NDZ004>008-012>016-024-026-027-054-200500-
NORTHEAST NORTH DAKOTA

CITY           SKY/WX    TMP DP  RH WIND       PRES   REMARKS
GRAND FORKS    PTCLDY    72  64  76 S14       29.71S
GRND FRKS AFB  CLEAR     70  64  81 S10       29.72S
DEVILS LAKE    CLEAR     71  58  63 NW14      29.77R
$$

NDZ022-023-025-028>030-036>039-047>053-200500-
SOUTHEAST NORTH DAKOTA

CITY           SKY/WX    TMP DP  RH WIND       PRES   REMARKS
FARGO          PTCLDY    71  64  78 S15G24    29.77S
JAMESTOWN      PTCLDY    68  63  84 SW7       29.78R
$$





USA.gov is the U.S. government's official web portal to all federal, state and local government web resources and services.